www.pogodaiklimat.ru

Погода и климат >> Архив погоды >> Россия >> Курганская область >> Шумиха


ПОГОДА в Шумихе

  • Прогноз погоды в Шумихе
  • Монитор погоды в Шумихе

АРХИВ ПОГОДЫ в Шумихе

Время (UTC), дата Ветер
(напр.,м/с)
 
Видим.   Явления Облачность Т
(С)
Тd
(С)
f
(%)
Тe
(С)
Тes
(С)
Комфортность P
(гПа)
Po
(гПа)
Тmin
(С)
Tmax
(С)
R
(мм)
R24
(мм)
S
(см)
00 16.09 З 2 20 км 9/9 600 м
[Cb cap]
+14.9 +4.5 50 +15 +15 1008.5 987.6
03 16.09 Ю 1 20 км 9/8 600 м
[Cb cap Ci sp]
+12.9 +7.8 71 +13 +13 1008.0 987.0 +12.0
06 16.09 ЮВ 2 20 км 9/4 600 м
[Cb cap Ac trans Ci ing]
+16.4 +7.7 56 +17 +19 1006.5 985.7
09 16.09 СЗ 4 20 км 9/4 600 м
[Cb cap Ac trans Ci sp]
+16.6 +8.5 59 +16 +18 1006.1 985.4
12 16.09 СЗ 2
{10}
4000 м гроза, ливневой дождь 9/9 600 м
[Cb cap]
+10.4 +7.3 81 +9 +9 1006.8 985.6
15 16.09 ЮЗ 2 20 км {гроза, ливн. осадки} 3/3 600 м
[Cb cap]
+6.1 +4.7 91 +4 +4 1007.4 985.8 +18.2 0.5
18 16.09 ЮЗ 3 20 км {гроза, ливн. осадки} 4/0
[Ci sp]
+6.6 +5.7 94 +3 +3 1006.7 985.2
21 16.09 Ю 3 20 км 9/0
[Ci sp]
+7.4 +6.0 91 +4 +4 1006.1 984.6
00 17.09 Ю 3 20 км 10/10 600 м
[Sc]
+7.8 +5.4 85 +5 +5 1005.7 984.3
03 17.09 Ю 5 20 км {дождь} 10/10 600 м
[Sc]
+9.0 +6.0 81 +6 +6 1004.2 983.0 +5.6 0.3
06 17.09 ЮЗ 8-13
{13}
20 км {дождь} 8/4 600 м
[Cb cap Ac trans]
+14.1 +4.9 54 +12 +12 1004.7 983.9
09 17.09 ЮЗ 6-10
{15}
20 км 8/5 600 м
[Cb cap Ci sp]
+16.8 +4.9 45 +16 +17 1004.0 983.4
12 17.09 ЮЗ 3
{10}
20 км 9/5 600 м
[Cu Sc Ac trans Ci sp]
+16.7 +4.3 44 +17 +17 1004.9 984.2
15 17.09 ЮВ 2 20 км 9/0
[Ac lent Ci sp]
+10.2 +6.1 76 +9 +9 1005.7 984.5 +17.5
18 17.09 Ю 2 20 км 9/0
[Ci sp]
+9.7 +4.4 70 +8 +8 1005.9 984.6
21 17.09 Ю 4 20 км 10/10 600 м
[Sc]
+12.0 +5.5 64 +10 +10 1004.9 983.9
00 18.09 Ю 3 20 км 8/0
[Ac trans Ci sp]
+10.8 +6.3 74 +9 +9 1004.9 983.9
03 18.09 Ю 2 4000 м слаб. дождь 10/0
[As op]
+11.6 +8.2 80 +11 +11 1004.6 983.6 +9.5 0.0
06 18.09 З 1 20 км в посл. час дождь 9/0
[As trans]
+14.3 +9.9 75 +15 +18 1003.4 982.6
09 18.09 З 2 20 км 9/4 600 м
[Cb cap As trans Ci sp]
+16.5 +8.0 57 +17 +19 1003.4 982.8
12 18.09 С 2 20 км в посл. час ливневой дождь 9/8 600 м
[Cb cap Ac trans Ci sp]
+13.8 +10.8 82 +13 +13 1003.1 982.3
15 18.09 Ю 2 4000 м слаб. ливневой дождь 10/10 600 м
[Cb cap]
+11.3 +10.0 92 +10 +10 1003.1 982.1 +16.8 2
18 18.09 ЮЗ 3 20 км {ливн. осадки} 9/0
[Ci sp]
+9.4 +8.2 92 +7 +7 1003.8 982.7
21 18.09 ЮЗ 2 500 м туман 10/10 600 м
[St]
+9.6 +8.9 95 +8 +8 1004.4 983.1
00 19.09 Ю 2 500 м туман 10/10 600 м
[St]
+8.1 +7.4 95 +6 +6 1004.6 983.2
03 19.09 ЮВ 2 20 км {туман} 10/10 600 м
[Sc]
+7.7 +7.0 95 +5 +5 1003.2 981.9 +7.6 0.3
06 19.09 ЮВ 4 4000 м слаб. дождь {туман} 10/10 600 м
[Sc]
+9.8 +9.2 96 +7 +7 998.9 977.9
09 19.09 Ю 8-12
{15}
20 км в посл. час дождь 10/10 600 м
[Sc]
+12.5 +10.4 87 +9 +9 992.6 971.9
12 19.09 ЮЗ 11-22
{24}
20 км {дождь} 8/5 600 м
[Cb cap Ci sp]
+16.4 +1.2 36 +15 +15 990.3 969.9
15 19.09 ЮЗ 11-19
{22}
20 км 10/10 600 м
[Sc]
+11.8 +0.6 46 +8 +8 991.2 970.4 +16.9 6
18 19.09 З 6-12
{19}
20 км 10/10 600 м
[Sc]
+9.3 +2.4 62 +6 +6 994.6 973.5
21 19.09 З 4
{15}
20 км 3/0
[Ci sp]
+7.9 +2.4 68 +5 +5 1001.0 979.7
00 20.09 ЮЗ 5
{10}
20 км 3/0
[Ci sp]
+6.8 +3.5 79 +3 +3 1005.0 983.5
03 20.09 ЮЗ 4 20 км 8/5 600 м
[Sc Ac trans Ci sp]
+8.1 +4.1 76 +5 +5 1007.3 985.9 +6.4
06 20.09 З 6-11
{11}
20 км 9/9 600 м
[Cb cap]
+11.1 +2.8 57 +8 +9 1009.7 988.4
09 20.09 ЮЗ 5
{11}
20 км 9/8 600 м
[Cb cap Ci sp]
+10.9 +3.4 60 +8 +9 1011.1 989.8
12 20.09 З 4
{12}
20 км {ливн. осадки} 8/5 600 м
[Cb cap Ac trans]
+12.5 +1.1 46 +11 +11 1012.2 991.0
15 20.09 Ю 3 20 км 3/3 600 м
[Cb cap]
+5.3 +3.2 86 +2 +2 1014.3 992.6 +13.1 0.3
18 20.09 ЮЗ 2 20 км 8/8 600 м
[Sc]
+6.7 +3.9 82 +4 +4 1015.4 993.7
21 20.09 ЮЗ 2 20 км ясно +3.4 +1.9 90 0 0 1016.8 994.8
00 21.09 ЮЗ 2 20 км ясно +1.5 +0.8 95 -2 -2 1017.5 995.3
03 21.09 Ю 1 20 км 9/3 600 м
[Sc Ci sp]
+3.3 +2.5 94 +2 +2 1018.1 996.1 +0.6
06 21.09 Ю 3 20 км 9/0
[As trans]
+9.7 +3.9 67 +8 +10 1017.4 995.9
09 21.09 Ю 3 20 км 10/0
[As op]
+10.5 +3.4 61 +9 +10 1015.4 994.0
12 21.09 Ю 3 20 км 10/10 600 м
[Cb cap]
+9.6 +3.8 67 +8 +8 1014.2 992.8
15 21.09 ЮВ 2 4000 м слаб. дождь 10/10 600 м
[Sc]
+7.2 +5.3 88 +5 +5 1011.9 990.3 +10.8 0.3
18 21.09 В 3 4000 м слаб. дождь 10/10 600 м
[Sc]
+6.2 +5.1 93 +3 +3 1007.0 985.5
21 21.09 СВ 2 4000 м слаб. дождь 10/10 600 м
[Sc]
+6.2 +5.3 94 +4 +4 1002.7 981.3
00 22.09 С 2 20 км слаб. дождь 10/10 600 м
[Sc]
+6.2 +5.5 95 +4 +4 996.9 975.6
03 22.09 СЗ 3 20 км в посл. час дождь 10/10 600 м
[Sc]
+6.2 +5.5 95 +3 +3 994.3 973.1 +6.1 12
06 22.09 З 3 20 км {дождь} 10/10 600 м
[Sc]
+6.5 +4.2 85 +3 +3 994.7 973.4
09 22.09 З 4 20 км в посл. час ливневой дождь 9/8 600 м
[Cb cap Ci sp]
+7.2 +4.4 82 +4 +4 995.5 974.3
12 22.09 З 3
{10}
20 км {ливн. осадки, дождь} 9/6 600 м
[Cb cap Ci sp]
+7.2 +4.1 81 +4 +5 997.5 976.3
15 22.09 З 2
{11}
20 км {ливн. осадки} ясно +4.0 -0.6 72 +1 +1 1000.7 979.1 +8.1 0.5
18 22.09 ЮЗ 2 20 км {ливн. осадки} ясно +0.3 -1.5 88 -3 -3 1002.2 980.3
21 22.09 ЮЗ 3 20 км ясно -0.3 -2.1 88 -5 -5 1003.3 981.3

 

Местоположение метеостанции Шумиха (Курганская область, Россия): широта 55.23 долгота 63.32 высота над уровнем моря 178 м.

В архиве по умолчанию представлена погода в Шумихе за последнюю неделю. Архивные данные за месяц целиком и за предыдущие месяцы, начиная с января 2011 года, Вы можете получить, выбрав интересующий диапазон дат из раскрывающегося списка и нажав кнопку "Ввод!".


*Определитесь, кто Вы:
робот инопланетянин человек

Внимание! Время в таблицах - всемирное. Для получения местного времени необходимо прибавить поправку, которая равна 5 ч.

Смотрите также архив погоды в соседних городах и на ближайших метеорологических станциях:

Погода в Куртамыше (Курганская область, Россия) (79 км)
Погода в Целинном (Курганская область, Россия) (84 км)
Погода в Бродокалмаке (Челябинская область, Россия) (88 км)
Погода в Шадринске (Курганская область, Россия) (96 км)
Погода в Октябрьском (Челябинская область, Россия) (98 км)
Погода в Далматово (Курганская область, Россия) (118 км)
Погода в Челябинске (Челябинская область, Россия) (129 км)
Погода в Звериноголовском (Курганская область, Россия) (130 км)
Погода в Кургане (Курганская область, Россия) (134 км)
Погода в Южноуральске (Челябинская область, Россия) (154 км)

Пояснения к столбцам:

Ветер - указаны скорость ветра в м/с - средняя за 10 мин, порывы в срок и между сроками (в фигурных скобках) и направление, откуда дует ветер: С - северный, СВ - северо-восточный, В - восточный, ЮВ - юго-восточный, Ю - южный, ЮЗ - юго-западный, З - западный, СЗ - северо-западный.
Видимость - горизонтальная дальность видимости в метрах или километрах. При видимости от 1 до 10 км при отсутствии осадков обычно наблюдается дымка, при ухудшении видимости до 1 км и менее - туман. В сухую погоду видимость может ухудшаться дымом, пылью или мглою.
Явления - указаны атмосферные явления, наблюдавшиеся в срок или в последний час перед сроком; фигурными скобками обозначены явления, наблюдавшиеся между сроками (за 1-3 часа до срока); квадратными скобками обозначены град или гололедные отложения с указанием их диаметра в мм.
Облачность - указаны через наклонную черту общая и нижняя облачность в баллах и высота нижней границы облаков в метрах; квадратными скобками обозначены формы облаков: Ci - перистые, Cs - перисто-слоистые, Cc - перисто-кучевые, Ac - высококучевые, As - высокослоистые, Sc - слоисто-кучевые, Ns - слоисто-дождевые, Cu - кучевые, Cb - кучево-дождевые. Подробнее классификацию облаков см. в Атласе облаков (PDF).
T - Температура воздуха - температура, измеренная на высоте 2 м над землей.
Td - Температура точки росы - температура, при понижении до которой содержащийся в воздухе водяной пар достигнет насыщения.
f - Относительная влажность воздуха - влажноcть воздуха, измеренная на высоте 2 м над землей.
Te - Эффективная температура - температура, которую ощущает одетый по сезону человек в тени. Характеристика душности погоды. При расчете учитывается влияние влажности воздуха и скорости ветра на теплоощущения человека.
Tes - Эффективная температура на солнце - температура, которую ощущает человек, с поправкой на солнечный нагрев. Характеристика знойности погоды. Зависит от высоты солнца над горизонтом, облачности и скорости ветра. Ночью, в пасмурную погоду, а также при ветре 12 м/с и более поправка равна нулю.
P - Атмосферное давление - приведенное к уровню моря атмосферное давление.
Po - Атмосферное давление - измеренное на уровне метеостанции атмосферное давление.
Tmin - Минимальная температура - минимум температуры воздуха на высоте 2 м над землей.
Tmax - Максимальная температура - максимум температуры воздуха на высоте 2 м над землей.
R - Количество осадков - Количество выпавших осадков за период времени, мм. При наведении курсора мыши на число - период времени, за который выпало указанное количество осадков.
R24 - Количество осадков - Количество выпавших осадков за 24 часа, мм.
S - Снежный покров - Высота снежного покрова, см. При наведении курсора мыши на число - состояние снежного покрова и степень покрытия местности в баллах.